Location: Ashtead
(51.3000°N, 0.3000°W)
Time: 16:11:13
(UTC+00:00)

Envisat - Pass Details

Date: 26 September 2023
Orbit: 762 x 764 km, 98.3° (Epoch: 08 December)

Event Time Altitude Azimuth Distance (km) Brightness Sun altitude
Rises 03:48:00 0° 15° (NNE) 3,245 6.8 -19.8°
Reaches altitude 10° 03:50:19 10° 17° (NNE) 2,315 6.0 -19.5°
Maximum altitude 03:55:26 78° 104° (ESE) 788 3.1 -18.8°
Enters shadow 04:00:13 12° 191° (S) 2,178 5.0 -18.1°
